SL-8 DEB, 3038

Orbit data source: Space-Track

SL-8 DEB, 3038 is space debris in LEO originally from a launch on Mon, 15 Mar 1965 UTC launched from the Tyuratam Missile And Space Complex (TTMTR). Debris objects in space refer to the collection of defunct objects orbiting the Earth. Examples of debris include non-operational satellites, rocket bodies, and fragments generated from explosions, collisions, or faulty payload assembly.

Loading next visibility...
Identifier
3038, 1965-020EN
Orbit
LEO
Last TLE update
21 hours ago
Origin
Manufacturer
Unknown
Mission
Spacecraft
Bus & Motor
Unknown
Mass
Unknown
Launch date (UTC)
1965-03-15 (60 years ago)
Launch vehicle
Unknown
Launch site
Tyuratam Missile And Space Complex (TTMTR)
Object type
Payload
Rocket body
Debris
Shape & HBR
Unknown
Radar Cross Section
Medium (>0.1 m² and <1 m²)

Expand to show TLE details & history

TLE from 21 hours ago
0 SL-8 DEB
1 03038U 65020EN  25199.10447683  .00001482  00000-0  37803-3 0  9995
2 03038  56.1590 106.6855 0403208 270.6606  84.8208 14.16335556178372
Epoch: 2025-07-18T02:30Z
TLE epoch observation values (Epoch: 2025-07-18T02:30:26.798Z)
Latitude
-0°
Longitude
132.91312°
Altitude
824.352 km
Speed
7.449 km/s
True Right ascension
07h 06m 44s
True Declination
0° 00' 00"
Sunlit
Object was in daylight at epoch
Visualization orbit readout
Latitude
29.89837°
Longitude
-72.80774°
Altitude
1,015.551 km
Speed
7.257 km/s
Apparent Right ascension
20h 13m 07s
Apparent Declination
-3° 16' 38"
Sunlit
Object is in daylight
Visualization observer readout
Local Sidereal Time
12:20:26
Azimuth
73.625° E
Elevation
-23.466°
Doppler factor
1
Orbital elements
Apogee altitude
1,128.507 km
Perigee altitude
546.621 km
Semi-major axis
7,215.701 km
Eccentricity
0.04032
Inclination
56.159°
RAAN
106.6855°
Arg. of periapsis
270.6606°
True anomaly
89.43838°
Mean anomaly
84.8208°
Eccentric anomaly
87.12811°
Mean motion
3.541 °/min
Orbital period
101.67 mins
BSTAR
0.00037803
Loading maneuver chart data...
Loading SW <> Apogee altitude chart data...
Loading historical data...
Loading historical data...
Loading historical data...
Loading historical data...
Loading historical data...
Loading historical data...
Loading historical data...
|